Weather in Trostianets

Ukraine / Vinnytsia Region     48°21′28″N   28°13′54″E
temp.,
°C
wind,
m/s
gust,
m/s
humid.,
%
clouds,
%
prec.,
mm/h
press.,
hPa
HPBL,
m
3 august, tue
tue300:00+18nnw248913 1.3 101259
03:00+17n238893 1.3 101460
06:00+15nnw229211 0.0 101531
09:00+19nnw24732 0.0 1016427
12:00+24nw34500 0.0 10161387
15:00+26wnw334053 0.0 10152270
18:00+23nne4655100 0.0 1015296
21:00+20ne226396 0.0 101611
4 august, wed
wed400:00+18e11673 0.0 101711
03:00+16ene21712 0.0 101711
06:00+16e11755 0.0 101711
09:00+21se3459100 0.0 1018323
12:00+25sse4549100 0.0 10171118
15:00+28s554388 0.0 10151976
18:00+28se4545100 0.0 10141781
21:00+21ese367132 0.5 101475
5 august, thu
thu500:00+18sse3893100 1.7 1015269
03:00+18se1193100 1.7 101314
06:00+18se348932 0.0 101286
09:00+23sse597269 0.0 1012577
12:00+28s685247 0.0 1010893
15:00+32s67376 0.0 10081582
18:00+31se711410 0.0 10041728
21:00+18n6994100 13.1 1007174
6 august, fri
fri600:00+20se51195100 2.5 1006251
03:00+19e2491100 5.6 100497
06:00+19sse259851 0.0 1005122
09:00+23s588454 0.3 1005680
12:00+25s5874100 0.4 10051043
15:00+27s686382 2.8 10041349
18:00+27s46617 0.1 10021113
21:00+17ne81294100 16.6 1006284
7 august, sat
sat700:00+18wnw3495100 3.2 1007128
03:00+17nw389366 3.2 1008327
06:00+15nw39953 0.0 1010281
09:00+18nnw468016 0.0 1011543
12:00+23nw565758 0.0 10121163
15:00+25nw45502 0.0 10121729
18:00+25nw354822 0.0 10121838
21:00+20nw22660 0.0 101311